Terminal Aerodrome Forecast
Issued by NWS Sterling, VA

Current Version | Previous Version | Text Only | Print | Product List | Glossary Off
Versions: 1 2 3 4 5 6 7 8 9 10 11 12 13 14 15 16 17 18 19 20 21 22 23

350
FTUS41 KLWX 270527
TAFDCA
TAF
KDCA 270527Z 2706/2806 21007KT 6SM -SHRA FEW008 BKN020 OVC050
     FM270900 34006KT P6SM VCSH BKN050 OVC130
     FM271300 33005KT P6SM BKN050
     FM271600 VRB04KT P6SM FEW050 SCT200
     FM272000 16005KT P6SM SCT200=

USA.gov is the U.S. government's official web portal to all federal, state and local government web resources and services.